Location: Caualo
(45.5667°N, 10.8667°E)
Time: 00:28:10
(UTC+00:00)

In-Cosmos 22 Rocket - Pass Details

Date: 02 October 2020
Orbit: 790 x 889 km, 81.2° (Epoch: 27 October)

Event Time Altitude Azimuth Distance (km) Brightness Sun altitude
Rises 19:22:28 0° 2° (N) 3,334 7.6 -26.2°
Reaches altitude 10° 19:25:42 10° 21° (NNE) 2,384 6.6 -26.8°
Enters shadow 19:26:32 13° 29° (NNE) 2,194 6.3 -26.9°
